When you browse on this site, cookies collect data to enhance your experience and personalize the content and advertising you see.
Visit our Privacy Policy to learn more. By continuing to use the site, you agree to this use of cookies and data.
  • Em Portugal
  • Lista de países
  • Para 7 dias
  • Temperatura da água
  • Mapa do tempo
  • Widgets de tempo
  • user-avatar
    Iniciar Sessão

    Previsão horária em Zaranj

    Hoje, 19 Fevereiro, Quarta-feira

    Tempo Temperatura Precipitação Vento Pressão Humidade
    00:00 +7°C° 0 mm 13 m/s 724 mmHg 53%
    01:00 +5°C° 0 mm 14 m/s 724 mmHg 55%
    02:00 +5°C° 0 mm 13 m/s 724 mmHg 55%
    03:00 +5°C° 0 mm 13 m/s 724 mmHg 55%
    04:00 +5°C° 0 mm 12 m/s 724 mmHg 54%
    05:00 +4°C° 0 mm 12 m/s 724 mmHg 54%
    06:00 +4°C° 0 mm 12 m/s 724 mmHg 54%
    07:00 +4°C° 0 mm 11 m/s 725 mmHg 54%
    08:00 +6°C° 0 mm 11 m/s 725 mmHg 47%
    09:00 +8°C° 0 mm 11 m/s 724 mmHg 41%
    10:00 +9°C° 0 mm 11 m/s 725 mmHg 34%
    11:00 +11°C° 0 mm 11 m/s 724 mmHg 31%
    12:00 +12°C° 0 mm 11 m/s 723 mmHg 28%
    13:00 +13°C° 0 mm 11 m/s 722 mmHg 24%
    14:00 +13°C° 0 mm 11 m/s 722 mmHg 24%
    15:00 +13°C° 0 mm 10 m/s 721 mmHg 23%
    16:00 +13°C° 0 mm 10 m/s 721 mmHg 22%
    17:00 +12°C° 0 mm 9 m/s 721 mmHg 25%
    18:00 +11°C° 0 mm 8 m/s 721 mmHg 28%
    19:00 +10°C° 0 mm 7 m/s 721 mmHg 31%
    20:00 +10°C° 0 mm 7 m/s 721 mmHg 31%
    21:00 +9°C° 0 mm 7 m/s 721 mmHg 32%
    22:00 +9°C° 0 mm 6 m/s 721 mmHg 32%
    23:00 +9°C° 0 mm 6 m/s 721 mmHg 32%

    Amanhã, 20 Fevereiro, Quinta-feira

    Tempo Temperatura Precipitação Vento Pressão Humidade
    00:00 +8°C° 0 mm 6 m/s 720 mmHg 32%
    01:00 +8°C° 0 mm 6 m/s 720 mmHg 33%
    02:00 +8°C° 0 mm 5 m/s 720 mmHg 35%
    03:00 +7°C° 0 mm 5 m/s 720 mmHg 38%
    04:00 +6°C° 0 mm 4 m/s 720 mmHg 41%
    05:00 +6°C° 0 mm 4 m/s 720 mmHg 42%
    06:00 +7°C° 0 mm 3 m/s 721 mmHg 42%
    07:00 +6°C° 0 mm 2 m/s 721 mmHg 43%
    08:00 +8°C° 0 mm 2 m/s 721 mmHg 39%
    09:00 +9°C° 0 mm 2 m/s 722 mmHg 35%
    10:00 +10°C° 0 mm 2 m/s 722 mmHg 30%
    11:00 +13°C° 0 mm 2 m/s 722 mmHg 28%
    12:00 +14°C° 0 mm 2 m/s 721 mmHg 25%
    13:00 +15°C° 0 mm 2 m/s 721 mmHg 22%
    14:00 +16°C° 0 mm 2 m/s 720 mmHg 21%
    15:00 +17°C° 0 mm 2 m/s 720 mmHg 19%
    16:00 +17°C° 0 mm 2 m/s 720 mmHg 18%
    17:00 +17°C° 0 mm 2 m/s 720 mmHg 20%
    18:00 +16°C° 0 mm 1 m/s 720 mmHg 23%
    19:00 +16°C° 0 mm 1 m/s 721 mmHg 25%
    20:00 +15°C° 0 mm 1 m/s 721 mmHg 26%
    21:00 +15°C° 0 mm 1 m/s 720 mmHg 26%
    22:00 +15°C° 0 mm 1 m/s 720 mmHg 27%
    23:00 +14°C° 0 mm 1 m/s 720 mmHg 29%

    Depois de amanhã, 21 Fevereiro, Sexta-feira

    Tempo Temperatura Precipitação Vento Pressão Humidade
    00:00 +14°C° 0 mm 1 m/s 720 mmHg 31%
    01:00 +14°C° 0 mm 1 m/s 719 mmHg 32%
    02:00 +14°C° 0 mm 1 m/s 719 mmHg 33%
    03:00 +14°C° 0 mm 2 m/s 718 mmHg 34%
    04:00 +14°C° 0 mm 2 m/s 718 mmHg 35%
    05:00 +13°C° 0 mm 2 m/s 718 mmHg 37%
    06:00 +13°C° 0 mm 2 m/s 718 mmHg 39%
    07:00 +12°C° 0 mm 1 m/s 718 mmHg 41%
    08:00 +14°C° 0 mm 2 m/s 719 mmHg 36%
    09:00 +16°C° 0 mm 2 m/s 719 mmHg 30%
    10:00 +18°C° 0 mm 2 m/s 720 mmHg 25%
    17:00 +24°C° 0 mm 3 m/s 719 mmHg 20%
    18:00 +22°C° 0 mm 3 m/s 719 mmHg 23%
    19:00 +20°C° 0 mm 3 m/s 719 mmHg 26%
    20:00 +20°C° 0 mm 3 m/s 720 mmHg 27%
    21:00 +19°C° 0 mm 3 m/s 720 mmHg 27%
    22:00 +19°C° 0 mm 2 m/s 720 mmHg 28%
    23:00 +18°C° 0 mm 3 m/s 720 mmHg 29%

    22 Fevereiro, Sábado

    Tempo Temperatura Precipitação Vento Pressão Humidade
    00:00 +18°C° 0 mm 3 m/s 720 mmHg 31%
    01:00 +17°C° 0 mm 3 m/s 720 mmHg 33%
    02:00 +17°C° 0 mm 3 m/s 720 mmHg 35%
    03:00 +16°C° 0 mm 3 m/s 720 mmHg 37%
    04:00 +16°C° 0 mm 3 m/s 720 mmHg 39%
    05:00 +14°C° 0 mm 3 m/s 720 mmHg 40%
    06:00 +15°C° 0 mm 2 m/s 721 mmHg 42%
    07:00 +15°C° 0 mm 2 m/s 721 mmHg 43%
    08:00 +17°C° 0 mm 2 m/s 722 mmHg 39%
    09:00 +18°C° 0 mm 3 m/s 722 mmHg 35%
    10:00 +20°C° 0 mm 3 m/s 723 mmHg 30%
    11:00 +21°C° 0 mm 2 m/s 722 mmHg 28%
    12:00 +24°C° 0 mm 2 m/s 722 mmHg 25%
    13:00 +25°C° 0 mm 1 m/s 721 mmHg 23%
    14:00 +26°C° 0 mm 1 m/s 721 mmHg 22%
    15:00 +26°C° 0 mm 1 m/s 721 mmHg 22%
    16:00 +27°C° 0 mm 1 m/s 720 mmHg 21%
    17:00 +26°C° 0 mm 2 m/s 720 mmHg 24%
    18:00 +25°C° 0 mm 3 m/s 720 mmHg 26%
    19:00 +24°C° 0 mm 3 m/s 721 mmHg 29%
    20:00 +22°C° 0 mm 3 m/s 721 mmHg 30%
    21:00 +21°C° 0 mm 2 m/s 720 mmHg 32%
    22:00 +20°C° 0 mm 2 m/s 720 mmHg 34%
    23:00 +20°C° 0 mm 2 m/s 720 mmHg 36%

    23 Fevereiro, Domingo

    Tempo Temperatura Precipitação Vento Pressão Humidade
    00:00 +20°C° 0 mm 1 m/s 720 mmHg 38%
    01:00 +19°C° 0 mm 1 m/s 720 mmHg 40%
    02:00 +19°C° 0 mm 1 m/s 719 mmHg 41%
    03:00 +19°C° 0 mm 1 m/s 719 mmHg 42%
    04:00 +17°C° 0 mm 2 m/s 719 mmHg 42%
    05:00 +17°C° 0 mm 2 m/s 719 mmHg 43%
    06:00 +18°C° 0 mm 1 m/s 719 mmHg 44%
    07:00 +16°C° 0 mm 1 m/s 720 mmHg 45%
    08:00 +19°C° 0 mm 1 m/s 720 mmHg 41%
    09:00 +20°C° 0 mm 2 m/s 721 mmHg 36%
    10:00 +23°C° 0 mm 2 m/s 721 mmHg 32%
    11:00 +24°C° 0 mm 2 m/s 721 mmHg 30%
    12:00 +25°C° 0 mm 2 m/s 720 mmHg 29%
    13:00 +26°C° 0 mm 2 m/s 720 mmHg 27%
    14:00 +26°C° 0 mm 2 m/s 720 mmHg 27%
    15:00 +27°C° 0 mm 2 m/s 719 mmHg 26%
    16:00 +27°C° 0 mm 1 m/s 719 mmHg 26%
    17:00 +26°C° 0 mm 2 m/s 719 mmHg 28%
    18:00 +25°C° 0 mm 2 m/s 719 mmHg 30%
    19:00 +24°C° 0 mm 2 m/s 719 mmHg 32%
    20:00 +23°C° 0 mm 1 m/s 720 mmHg 35%
    21:00 +22°C° 0 mm 1 m/s 720 mmHg 37%
    22:00 +19°C° 0 mm 0 m/s 720 mmHg 39%
    23:00 +19°C° 0 mm 0 m/s 720 mmHg 40%

    24 Fevereiro, Segunda-feira

    Tempo Temperatura Precipitação Vento Pressão Humidade
    00:00 +18°C° 0 mm 0 m/s 719 mmHg 42%
    01:00 +17°C° 0 mm 0 m/s 719 mmHg 43%
    02:00 +19°C° 0 mm 1 m/s 719 mmHg 43%
    03:00 +19°C° 0 mm 1 m/s 719 mmHg 43%
    04:00 +18°C° 0 mm 2 m/s 719 mmHg 43%
    05:00 +18°C° 0 mm 2 m/s 719 mmHg 44%
    06:00 +18°C° 0 mm 2 m/s 720 mmHg 46%
    07:00 +18°C° 0 mm 2 m/s 720 mmHg 47%
    08:00 +19°C° 0 mm 2 m/s 721 mmHg 43%
    09:00 +21°C° 0 mm 2 m/s 721 mmHg 38%
    10:00 +24°C° 0 mm 2 m/s 721 mmHg 34%
    11:00 +25°C° 0 mm 1 m/s 721 mmHg 31%
    12:00 +25°C° 0 mm 1 m/s 720 mmHg 29%
    13:00 +24°C° 0 mm 0 m/s 720 mmHg 27%
    14:00 +25°C° 0 mm 0 m/s 720 mmHg 26%
    15:00 +25°C° 0 mm 0 m/s 719 mmHg 25%
    16:00 +26°C° 0 mm 0 m/s 719 mmHg 24%
    17:00 +27°C° 0 mm 1 m/s 719 mmHg 26%
    18:00 +26°C° 0 mm 2 m/s 719 mmHg 27%
    19:00 +25°C° 0 mm 2 m/s 719 mmHg 29%
    20:00 +24°C° 0 mm 3 m/s 720 mmHg 30%
    21:00 +24°C° 0 mm 3 m/s 720 mmHg 31%
    22:00 +22°C° 0 mm 3 m/s 720 mmHg 31%
    23:00 +22°C° 0 mm 3 m/s 720 mmHg 32%
    Mostrar mais